DW7098 Weather Reports


Display with metric or nautical units.
time (UTC)temp
F
wind
direction
speed
MPH
gust
MPH
rain 1hr
in
rain 24hr
in
rain mn
in
humidity
%
barometer
mb
20260505193039 61 273 2.0 5.0 0.00 0.00 0.00
20260505190103 59 211 1.0 5.0 0.00 0.00 0.00
20260505173039 58 235 1.0 4.0 0.00 0.00 0.00
20260505170108 57 237 1.0 6.0 0.00 0.00 0.00
20260505163046 58 259 0.0 3.0 0.00 0.00 0.00
20260505140110 55 240 0.0 2.0 0.00 0.00 0.00
20260505120106 55 237 1.0 3.0 0.00 0.00 0.00
20260505113026 55 245 0.0 4.0 0.00 0.00 0.00
20260505100100 55 232 1.0 4.0 0.00 0.00 0.00
20260505093035 55 250 0.0 3.0 0.00 0.00 0.00
20260505083044 55 208 0.0 2.0 0.00 0.00 0.00
20260505080053 55 212 0.0 7.0 0.00 0.00 0.00
20260505073034 55 161 1.0 4.0 0.00 0.00 0.00
20260505063046 56 263 1.0 5.0 0.00 0.00 0.00
20260505060056 56 268 1.0 6.0 0.00 0.00 0.00
20260505053053 56 265 0.0 5.0 0.00 0.00 0.00
20260505040106 56 252 1.0 8.0 0.00 0.00 0.00
20260505030058 57 249 2.0 5.0 0.00 0.00 0.00
20260505023038 57 262 2.0 7.0 0.00 0.00 0.00
20260505020109 58 230 1.0 8.0 0.00 0.00 0.00
20260505013050 58 277 2.0 8.0 0.00 0.00 0.00
20260505010100 59 252 1.0 9.0 0.00 0.00 0.00
20260505003041 60 246 2.0 9.0 0.00 0.00 0.00
20260505000046 62 242 2.0 7.0 0.00 0.00 0.00
20260504233046 65 300 2.0 8.0 0.00 0.00 0.00
20260504223043 67 238 2.0 8.0 0.00 0.00 0.00
20260504220055 67 4 2.0 12.0 0.00 0.00 0.00
20260504213036 68 296 1.0 6.0 0.00 0.00 0.00
20260504203049 66 347 3.0 8.0 0.00 0.00 0.00
20260504200100 66 212 1.0 7.0 0.00 0.00 0.00